[[{"header":{"parameterUnit":"m.s-1","parameterCategory":1,"la1":30.2991,"la2":30.254,"lo1":-89.0895,"lo2":-89.0444,"dy":0.0017,"dx":0.0017,"nx":28,"ny":28,"refTime":"2024-10-11T21:00:00:Z","depth":0,"parameterNumber":2,"parameterNumberName":"U-component_of_WINDS"},"data":[0,0,0,0,0,0,0,0,0,0,0,0,0,0,0,0,0,0,0,0,0,0,0,0,0,0,0,0,0,0,0,0,0,0,0,0,0,0,0,0,0,0,0,0,0,0,0,0,0,0,0,0,0,0,0,0,0,0,-1.9539,-1.954,0,-1.9641,-1.9642,-1.9643,-1.9596,-1.9594,-1.9591,-1.9589,-1.9695,-1.97,-1.9705,0,0,0,0,0,0,0,0,0,0,0,0,0,-1.9304,-1.9309,-1.9538,-1.954,-1.9541,-1.9641,-1.9642,-1.9644,-1.9597,-1.9594,-1.959,-1.9588,-1.9693,-1.97,-1.9706,0,0,0,0,0,0,0,0,0,0,0,0,0,-1.9406,-1.931,-1.9538,-1.953,-1.953,-1.9641,-1.9642,-1.9644,-1.9597,-1.9593,-1.959,-1.9586,-1.9691,-1.9699,-1.9707,-1.9832,0,0,-1.9731,-1.9734,0,0,0,0,0,0,0,0,-1.94,-1.9415,-1.953,-1.953,-1.9531,-1.9602,-1.9599,-1.9707,-1.9598,-1.9572,-1.9589,-1.9584,-1.9667,-1.9677,-1.9705,-1.9837,-1.9842,-1.9731,-1.9736,-1.9739,-1.9742,0,0,0,0,0,0,0,-1.9393,-1.941,-1.9579,-1.9531,-1.9532,-1.9521,-1.9532,-1.9619,-1.964,-1.9574,-1.9571,-1.9583,-1.9667,-1.9697,-1.9707,-1.9843,-1.9731,-1.9738,-1.9743,-1.9746,-2.0086,-2.009,0,0,0,0,0,0,-1.9386,-1.9405,-1.9576,-1.9582,-1.9455,-1.9529,-1.954,-1.9583,-1.9639,-1.9644,-1.9587,-1.9581,-1.9686,-1.9698,-1.971,-1.9862,-1.9739,-1.9747,-1.9751,-2.0081,-2.0087,-2.0091,0,0,0,0,0,0,-1.9381,-1.9402,-1.9572,-1.9493,-1.9513,-1.9537,-1.9585,-1.9587,-1.9617,-1.9648,-1.9652,-1.9613,-1.9683,-1.9699,-1.9803,-1.9865,-1.975,-1.9757,-2.0076,-2.0083,-2.0089,-2.0165,0,0,0,0,0,0,-1.9375,-1.9401,-1.9448,-1.9494,-1.9518,-1.9662,-1.9589,-1.9592,-1.9631,-1.9624,-1.9675,-1.9679,-1.9681,-1.9791,-1.981,-1.9873,-1.9764,-2.0071,-2.0079,-2.0087,-2.0157,-2.0173,-2.0187,0,0,0,0,0,-1.9367,-1.9465,-1.9451,-1.9472,-1.9577,-1.9665,-1.9679,-1.9679,-1.9636,-1.9684,-1.9704,-1.9678,-1.9855,-1.9802,-1.9823,-1.989,-2.0067,-2.0077,-2.0086,-2.015,-2.017,-2.0187,0,0,0,0,0,0,-1.9426,-1.9471,-1.9455,-1.9572,-1.9615,-1.9657,-1.9718,-1.97,-1.9756,-1.9748,-1.9746,-1.9758,-1.9865,-1.9887,-1.9828,-2.0015,-1.9954,-1.9969,-1.9996,-2.0015,-2.003,-2.0022,-1.977,0,0,0,0,0,-1.9453,-1.952,-1.9556,-1.9655,-1.9678,-1.9694,-1.9733,-1.9729,-1.9774,-1.9792,-1.982,-1.9865,-1.9931,-1.9974,-2.0036,-2.016,-2.0171,-2.0217,-2.0232,-2.0244,-2.0256,-2.0325,-2.0346,-2.0123,-2.0123,-2.0123,0,0,-1.9508,-1.9541,-1.9584,-1.9668,-1.9701,-1.9771,-1.971,-1.9787,-1.9839,-1.9804,-1.9903,-1.9925,-1.9975,-2.009,-2.0142,-2.0112,-2.032,-2.0256,-2.0266,-2.0272,-2.0337,-2.0358,-2.0377,-2.013,-2.0129,-2.0128,0,0,-1.9645,-1.9677,-1.9763,-1.9798,-1.9849,-1.986,-1.9881,-1.9926,-1.994,-2.0039,-2.0014,-2.0077,-2.019,-2.0228,-2.0261,-2.0415,-2.0392,-2.0435,-2.0514,-2.058,-2.0598,-2.0613,-2.0668,-2.0688,-2.0447,-2.0448,-2.0448,0,-1.9708,-1.9812,-1.981,-1.9889,-1.9927,-1.9899,-1.9987,-2.0021,-2.009,-2.0117,-2.0083,-2.0226,-2.0258,-2.0381,-2.0418,-2.0446,-2.0471,-2.0429,-2.0595,-2.0611,-2.0625,-2.0678,-2.0698,-2.0452,-2.0452,-2.0451,-2.0451,0,-1.9887,-1.996,-2.0024,-2.0091,-2.0137,-2.022,-2.0231,-2.0278,-2.0271,-2.0285,-2.0387,-2.0425,-2.0495,-2.0524,-2.0517,-2.0647,-2.0627,-2.0595,-2.0534,-2.0651,-2.0701,-2.0721,-2.0459,-2.0458,-2.0456,-2.0455,0,0,-2.0063,-2.0129,-2.0153,-2.0183,-2.0238,-2.0295,-2.0378,-2.0446,-2.0486,-2.0535,-2.0605,-2.0702,-2.0673,-2.0711,-2.0709,-2.0767,-2.0887,-2.0728,-2.0729,-2.0756,-2.1033,-2.1057,-2.108,-2.0873,-2.0877,-2.088,-2.1028,0,-2.0204,-2.0348,-2.0349,-2.0482,-2.055,-2.0525,-2.0597,-2.0639,-2.0656,-2.0716,-2.0734,-2.0803,-2.0759,-2.0782,-2.0839,-2.086,-2.0943,-2.085,-2.0938,-2.0941,-2.0926,-2.1105,-2.1131,-2.1269,-2.1048,-2.1051,-2.1053,0,-2.0387,-2.0443,-2.0582,-2.0629,-2.0657,-2.0722,-2.0785,-2.0843,-2.0891,-2.0899,-2.0943,-2.0932,-2.1017,-2.0954,-2.1072,-2.1009,-2.1046,-2.1062,-2.1067,-2.1075,-2.1004,-2.1118,-2.1313,-2.1334,-2.1084,-2.1081,-2.1079,0,-2.0502,-2.0611,-2.0709,-2.0736,-2.0793,-2.0839,-2.0865,-2.0909,-2.095,-2.1006,-2.1033,-2.1098,-2.1133,-2.1184,-2.1192,-2.1145,-2.1311,-2.1248,-2.132,-2.132,-2.1355,-2.1353,-2.1559,-2.138,-2.1379,-2.1379,-2.1379,0,-2.0659,-2.0746,-2.0762,-2.0822,-2.0918,-2.092,-2.1016,-2.1038,-2.1077,-2.1142,-2.1125,-2.1186,-2.1192,-2.1256,-2.1263,-2.136,-2.1376,-2.1385,-2.1386,-2.1386,-2.1385,-2.141,-2.14,-2.1385,-2.1383,-2.1382,-2.1381,0,-2.0803,-2.0817,-2.0922,-2.0967,-2.0981,-2.105,-2.1089,-2.1147,-2.1162,-2.1244,-2.1264,-2.1288,-2.1362,-2.1375,-2.1462,-2.1466,-2.1582,-2.1573,-2.1566,-2.1565,-2.1636,-2.1629,-2.1864,-2.1896,-2.1697,-2.1698,-2.17,0,-2.0902,-2.0968,-2.1021,-2.1063,-2.1091,-2.1159,-2.1201,-2.1206,-2.125,-2.1311,-2.1362,-2.1434,-2.1492,-2.1611,-2.1637,-2.1704,-2.1696,-2.1774,-2.1706,-2.1705,-2.1698,-2.1693,-2.17,-2.1787,-2.1789,-2.1791,-2.1793,0,-2.1076,-2.108,-2.1142,-2.1206,-2.1257,-2.1308,-2.1357,-2.1392,-2.1403,-2.1455,-2.153,-2.1575,-2.1665,-2.1737,-2.1804,-2.1831,-2.1814,-2.1814,-2.1834,-2.1835,-2.1828,-2.1833,-2.1601,-2.1808,-2.1807,-2.1806,-2.1805,-2.1804,-2.1201,-2.1258,-2.1305,-2.1374,-2.1411,-2.1457,-2.1514,-2.1537,-2.16,-2.1672,-2.1672,-2.1755,-2.1802,-2.189,-2.1922,-2.1988,-2.1963,-2.1992,-2.1999,-2.2006,-2.2013,-2.1818,-2.2,-2.2,-2.1999,-2.1999,-2.1999,0,-2.1374,-2.1403,-2.1467,-2.1535,-2.159,-2.157,-2.1623,-2.167,-2.1743,-2.1789,-2.1846,-2.1934,-2.2004,-2.2036,-2.2105,-2.2152,-2.2146,-2.217,-2.2166,-2.2173,-2.2031,-2.2007,-2.2174,-2.2173,-2.2173,-2.2173,-2.2173,-2.2173,-2.147,-2.1567,-2.1577,-2.1693,-2.1722,-2.1802,-2.1834,-2.1877,-2.1914,-2.2012,-2.207,-2.2091,-2.2131,-2.2204,-2.2268,-2.2275,-2.2302,-2.2329,-2.2334,-2.2201,-2.2183,-2.2166,-2.2143,-2.2335,-2.2335,-2.247,-2.2471,-2.2472]},{"header":{"parameterUnit":"m.s-1","parameterCategory":1,"la1":30.2991,"la2":30.254,"lo1":-89.0895,"lo2":-89.0444,"dy":0.0017,"dx":0.0017,"nx":28,"ny":28,"refTime":"2024-10-11T21:00:00:Z","depth":0,"parameterNumber":3,"parameterNumberName":"V-component_of_WINDS"},"data":[0,0,0,0,0,0,0,0,0,0,0,0,0,0,0,0,0,0,0,0,0,0,0,0,0,0,0,0,0,0,0,0,0,0,0,0,0,0,0,0,0,0,0,0,0,0,0,0,0,0,0,0,0,0,0,0,0,0,-1.7023,-1.7022,0,-1.6951,-1.695,-1.6949,-1.6914,-1.6914,-1.6914,-1.6914,-1.6839,-1.6837,-1.6835,0,0,0,0,0,0,0,0,0,0,0,0,0,-1.7125,-1.7123,-1.7023,-1.7022,-1.7021,-1.6951,-1.695,-1.6949,-1.6914,-1.6914,-1.6914,-1.6914,-1.6839,-1.6837,-1.6835,0,0,0,0,0,0,0,0,0,0,0,0,0,-1.707,-1.7123,-1.7023,-1.6995,-1.6992,-1.6951,-1.695,-1.6949,-1.6914,-1.6914,-1.6914,-1.6914,-1.684,-1.6837,-1.6834,-1.6816,0,0,-1.6825,-1.6824,0,0,0,0,0,0,0,0,-1.7073,-1.7066,-1.7,-1.6997,-1.6993,-1.6941,-1.6959,-1.6904,-1.6914,-1.6943,-1.6914,-1.6914,-1.6873,-1.6867,-1.6854,-1.6812,-1.6809,-1.6825,-1.6823,-1.6822,-1.6821,0,0,0,0,0,0,0,-1.7077,-1.7069,-1.6994,-1.6999,-1.6995,-1.6985,-1.6977,-1.6948,-1.6909,-1.6941,-1.6938,-1.693,-1.6871,-1.6857,-1.6852,-1.6808,-1.6825,-1.6822,-1.682,-1.6819,-1.6745,-1.6745,0,0,0,0,0,0,-1.7085,-1.7072,-1.6997,-1.6992,-1.7034,-1.6983,-1.6974,-1.6958,-1.6909,-1.6902,-1.693,-1.6929,-1.6862,-1.6855,-1.6849,-1.6822,-1.6822,-1.6819,-1.6817,-1.6745,-1.6745,-1.6745,0,0,0,0,0,0,-1.7088,-1.7079,-1.6999,-1.7031,-1.702,-1.6981,-1.6963,-1.6957,-1.6942,-1.6901,-1.6894,-1.6923,-1.6861,-1.6853,-1.6824,-1.6819,-1.6818,-1.6815,-1.6745,-1.6745,-1.6745,-1.677,0,0,0,0,0,0,-1.7091,-1.708,-1.7074,-1.7032,-1.7019,-1.6977,-1.6963,-1.6955,-1.6937,-1.6935,-1.6892,-1.6885,-1.6861,-1.6828,-1.6821,-1.6815,-1.6813,-1.6745,-1.6745,-1.6745,-1.6769,-1.677,-1.6771,0,0,0,0,0,-1.7095,-1.7084,-1.7074,-1.7065,-1.701,-1.6977,-1.6969,-1.6942,-1.6937,-1.693,-1.6903,-1.6887,-1.6821,-1.6826,-1.6817,-1.681,-1.6746,-1.6745,-1.6745,-1.6769,-1.677,-1.6771,0,0,0,0,0,0,-1.7127,-1.7078,-1.7066,-1.7042,-1.7013,-1.6971,-1.6961,-1.6945,-1.6917,-1.6916,-1.6882,-1.6872,-1.6846,-1.6825,-1.6831,-1.6788,-1.6781,-1.6779,-1.6803,-1.6804,-1.6805,-1.681,-1.681,0,0,0,0,0,-1.7131,-1.7109,-1.7067,-1.7049,-1.7036,-1.7001,-1.6985,-1.6966,-1.6935,-1.6923,-1.6894,-1.6864,-1.6836,-1.6819,-1.6791,-1.6766,-1.6755,-1.6757,-1.6758,-1.6759,-1.6757,-1.674,-1.6739,-1.6743,-1.6743,-1.6743,0,0,-1.7139,-1.711,-1.7098,-1.7055,-1.7031,-1.7007,-1.6991,-1.6967,-1.6948,-1.6919,-1.689,-1.6867,-1.6831,-1.6803,-1.6789,-1.6785,-1.6753,-1.6758,-1.676,-1.6757,-1.6739,-1.6739,-1.6738,-1.6743,-1.6743,-1.6743,0,0,-1.7142,-1.7119,-1.71,-1.7076,-1.704,-1.7016,-1.7012,-1.6971,-1.6955,-1.6925,-1.6901,-1.6878,-1.6832,-1.6807,-1.6788,-1.6778,-1.6762,-1.677,-1.6776,-1.6759,-1.6759,-1.6759,-1.6754,-1.6752,-1.6769,-1.6769,-1.6769,0,-1.7157,-1.7122,-1.7093,-1.7069,-1.705,-1.7022,-1.7002,-1.698,-1.6937,-1.6923,-1.6919,-1.6858,-1.6833,-1.6797,-1.6795,-1.6781,-1.6773,-1.6775,-1.6762,-1.6761,-1.676,-1.6755,-1.6753,-1.677,-1.677,-1.677,-1.677,0,-1.714,-1.7116,-1.7105,-1.7064,-1.7043,-1.7022,-1.6988,-1.697,-1.6952,-1.6929,-1.6897,-1.6864,-1.6829,-1.6819,-1.6802,-1.678,-1.6778,-1.6768,-1.6761,-1.6761,-1.6756,-1.6754,-1.6772,-1.6771,-1.6771,-1.6771,0,0,-1.7163,-1.7104,-1.7101,-1.708,-1.7037,-1.7017,-1.6993,-1.6958,-1.6943,-1.6913,-1.6891,-1.6851,-1.6841,-1.682,-1.6799,-1.6784,-1.6777,-1.6776,-1.6774,-1.6776,-1.6748,-1.6756,-1.6754,-1.6765,-1.6765,-1.6765,-1.6751,0,-1.7159,-1.7116,-1.7088,-1.7055,-1.7031,-1.7003,-1.6982,-1.6952,-1.6929,-1.6904,-1.6877,-1.6849,-1.6839,-1.6825,-1.681,-1.6781,-1.6771,-1.6782,-1.6743,-1.6742,-1.6752,-1.6751,-1.6759,-1.6748,-1.6749,-1.6748,-1.6748,0,-1.7149,-1.7119,-1.7084,-1.7042,-1.703,-1.7012,-1.6977,-1.6954,-1.6918,-1.6902,-1.6877,-1.6856,-1.6827,-1.6823,-1.6782,-1.679,-1.6772,-1.6756,-1.6755,-1.6749,-1.6745,-1.6745,-1.6744,-1.6742,-1.6745,-1.6745,-1.6745,0,-1.7166,-1.7118,-1.709,-1.7074,-1.7024,-1.7012,-1.699,-1.6955,-1.6935,-1.6904,-1.689,-1.6856,-1.6837,-1.681,-1.6779,-1.6779,-1.6741,-1.6734,-1.6725,-1.6726,-1.6718,-1.6719,-1.6714,-1.6709,-1.6709,-1.6709,-1.6709,0,-1.7164,-1.7143,-1.7097,-1.708,-1.7055,-1.7023,-1.6999,-1.6975,-1.6943,-1.692,-1.6893,-1.6872,-1.6832,-1.6805,-1.6781,-1.675,-1.6742,-1.6727,-1.672,-1.6728,-1.673,-1.6716,-1.6716,-1.6708,-1.6708,-1.6708,-1.6708,0,-1.718,-1.7148,-1.7116,-1.7071,-1.7059,-1.7043,-1.7003,-1.6985,-1.6959,-1.693,-1.6921,-1.688,-1.6847,-1.6813,-1.6768,-1.6752,-1.6721,-1.6713,-1.6733,-1.6729,-1.6722,-1.6722,-1.6706,-1.6701,-1.6701,-1.6701,-1.6701,0,-1.718,-1.7164,-1.7116,-1.7099,-1.7078,-1.705,-1.703,-1.6996,-1.6975,-1.6933,-1.6919,-1.6883,-1.6853,-1.68,-1.6766,-1.6731,-1.6721,-1.6717,-1.6715,-1.6724,-1.6719,-1.672,-1.6717,-1.6719,-1.6719,-1.6719,-1.6719,0,-1.7184,-1.7168,-1.714,-1.7105,-1.7081,-1.7052,-1.7022,-1.7009,-1.6969,-1.6947,-1.6912,-1.6889,-1.6842,-1.6806,-1.6767,-1.6743,-1.6724,-1.672,-1.6716,-1.6724,-1.6735,-1.6727,-1.6734,-1.672,-1.672,-1.672,-1.672,-1.672,-1.7191,-1.7174,-1.7137,-1.7106,-1.708,-1.7052,-1.7031,-1.7003,-1.6974,-1.6933,-1.6915,-1.688,-1.6842,-1.6787,-1.6763,-1.6734,-1.6729,-1.6724,-1.6722,-1.6721,-1.6722,-1.6741,-1.6727,-1.6727,-1.6727,-1.6727,-1.6727,0,-1.7191,-1.7166,-1.7138,-1.7096,-1.7071,-1.7055,-1.7021,-1.7,-1.697,-1.6937,-1.6907,-1.6866,-1.6831,-1.6794,-1.6756,-1.6739,-1.6729,-1.673,-1.6731,-1.6725,-1.6729,-1.6736,-1.6739,-1.6739,-1.6739,-1.6739,-1.6739,-1.6739,-1.7189,-1.7159,-1.7139,-1.7095,-1.7069,-1.7035,-1.7016,-1.6989,-1.6963,-1.6918,-1.6889,-1.6865,-1.6829,-1.6788,-1.6755,-1.6744,-1.6731,-1.6734,-1.6721,-1.6726,-1.6725,-1.6724,-1.673,-1.6732,-1.6732,-1.6719,-1.6719,-1.6719]}]]